Regional Weather Roundup
Issued by NWS Charleston, WV

Home | Current Version | Previous Version | Graphics & Text | Print | Product List | Glossary On
Versions: 1 2 3 4 5 6 7 8 9 10 11 12 13 14 15 16 17 18 19 20 21 22 23 24 25 26 27 28 29 30 31 32 33 34 35 36 37 38 39 40 41 42 43 44 45 46 47 48 49 50
000
ASUS41 KRLX 032210
RWRRLX
West Virginia Regional Weather Roundup
National Weather Service Charleston WV
600 PM EDT THU SEP 03 2015

Note: "fair" indicates few or no clouds below 12,000 feet with no
significant weather and/or obstructions to visibility.

WVZ003-032300-
Northern Panhandle of West Virginia

CITY           SKY/WX    TMP DP  RH WIND       PRES   REMARKS
WHEELING       CLOUDY    80  67  64 W16       29.98R THUNDER
$$

WVZ009-032300-
Northwest West Virginia

CITY           SKY/WX    TMP DP  RH WIND       PRES   REMARKS
PARKERSBURG    LGT RAIN  73  65  75 CALM      30.00S
$$

WVZ006-032300-
Western West Virginia

CITY           SKY/WX    TMP DP  RH WIND       PRES   REMARKS
HUNTINGTON     MOSUNNY   90  60  36 NW9       29.95S
$$

WVZ015-032300-
West Central West Virginia

CITY           SKY/WX    TMP DP  RH WIND       PRES   REMARKS
CHARLESTON     MOSUNNY   88  65  46 N3        29.95F
$$

WVZ022-031-032300-
North Central West Virginia

CITY           SKY/WX    TMP DP  RH WIND       PRES   REMARKS
CLARKSBURG     MOSUNNY   84  67  56 W6        29.96S
MORGANTOWN     PTSUNNY   79  65  62 CALM      29.96S
$$

WVZ025-035-042-045-032300-
Southern West Virginia

CITY           SKY/WX    TMP DP  RH WIND       PRES   REMARKS
BECKLEY        SUNNY     80  65  59 N7        30.04S
LOGAN            N/A     84  66  54 CALM      30.00S
BLUEFIELD      MOSUNNY   76  63  64 VRB6      30.07S
LEWISBURG      MOSUNNY   80  64  59 CALM      30.02R
$$

WVZ047-032300-
Northern Mountains of West Virginia

CITY           SKY/WX    TMP DP  RH WIND       PRES   REMARKS
ELKINS         MOSUNNY   79  65  62 NW7       30.00S
$$

WVZ052-032300-
Eastern Panhandle of West Virginia

CITY           SKY/WX    TMP DP  RH WIND       PRES   REMARKS
MARTINSBURG    MOSUNNY   90  63  40 N7        29.87F
PETERSBURG     CLOUDY    82  69  66 S3        29.92S
$$



USA.gov is the U.S. government's official web portal to all federal, state and local government web resources and services.